Location: Newark
(35.2672°N, 80.7344°W)
Time: 13:11:31
(UTC+00:00)

Tiros 1 - Pass Details

Date: 21 January 2020
Orbit: 631 x 664 km, 48.4° (Epoch: 26 February)

Event Time Altitude Azimuth Distance (km) Brightness Sun altitude
Rises 17:25:43 0° 193° (SSW) 2,915 11.5 34.8°
Reaches altitude 10° 17:28:34 10° 175° (S) 2,017 11.1 34.8°
Maximum altitude 17:31:51 19° 130° (SE) 1,515 9.8 34.8°
Drops below altitude 10° 17:35:09 10° 85° (E) 2,040 9.8 34.8°
Sets 17:38:03 0° 68° (ENE) 2,961 10.4 34.8°
